Hourly Data Report for October 07, 2015

All times are specified in Local Standard Time (LST). Add 1 hour to adjust for Daylight Saving Time where and when it is observed.

CHARLOTTETOWN A
PRINCE EDWARD ISLAND

46°17'21.000" N
63°07'09.000" W
48.50 m
8300301
71706
YYG

Download Data

Hourly Data (October 2015)
Hourly Data Report for October 7, 2015
Temp Definition
°C
Dew Point Temp Definition
°C
Rel Hum Definition
%
Wind Dir Definition
10's deg

Wind Spd Definition
km/h
Visibility Definition
km
Stn Press Definition
kPa
Hmdx Definition


Wind Chill Definition


Weather Definition


TIME
00:00 Legend Double Dagger 4.8 4.7 99 35 4 4.8 100.40     Fog
01:00 Legend Double Dagger 4.8 4.7 99 25 3 11.3 100.38     LegendNANA
02:00 Legend Double Dagger 4.5 4.4 99 29 4 24.1 100.35     Mainly Clear
03:00 Legend Double Dagger 4.0 4.0 100 25 4 4.8 100.33     Fog
04:00 Legend Double Dagger 6.0 5.9 99 29 7 3.2 100.32     Fog
05:00 Legend Double Dagger 7.7 7.7 100 32 10 3.2 100.36     Fog
06:00 Legend Double Dagger 9.2 9.2 100 36 3 0.2 100.36     Fog
07:00 Legend Double Dagger 8.9 8.9 100 36 2 0.2 100.37     Fog
08:00 Legend Double Dagger 9.4 9.4 100 36 1 0.4 100.39     Fog
09:00 Legend Double Dagger 11.0 11.0 100 15 6 0.8 100.39     Fog
10:00 Legend Double Dagger 12.1 11.6 97 20 16 24.1 100.36     LegendNANA
11:00 Legend Double Dagger 13.9 11.8 87 18 15 24.1 100.32     Mainly Clear
12:00 Legend Double Dagger 15.2 10.9 75 23 16 24.1 100.28     LegendNANA
13:00 Legend Double Dagger 15.4 9.8 69 22 17 24.1 100.25     LegendNANA
14:00 Legend Double Dagger 15.9 9.2 64 22 13 24.1 100.20     Mostly Cloudy
15:00 Legend Double Dagger 16.2 9.0 62 26 12 24.1 100.17     LegendNANA
16:00 Legend Double Dagger 16.1 8.9 62 28 9 24.1 100.17     LegendNANA
17:00 Legend Double Dagger 14.7 8.5 66 26 6 24.1 100.17     Mainly Clear
18:00 Legend Double Dagger 13.2 8.7 74 25 6 24.1 100.22     LegendNANA
19:00 Legend Double Dagger 12.9 8.6 75 22 8 24.1 100.25     LegendNANA
20:00 Legend Double Dagger 11.9 9.0 82 22 8 24.1 100.25     Mostly Cloudy
21:00 Legend Double Dagger 11.4 10.2 92 22 11 24.1 100.20     LegendNANA
22:00 Legend Double Dagger 11.6 9.9 89 24 12 24.1 100.23     LegendNANA
23:00 Legend Double Dagger 11.1 8.9 86 25 13 24.1 100.21     Mainly Clear

Notes on Data Quality.

Legend

  • E = Estimated
  • M = Missing
  • NA = Not Available
  • ‡ = Partner data that is not subject to review by the National Climate Archives
Date modified: